Time,TemperatureF,DewpointF,PressureIn,WindDirection,WindDirectionDegrees,WindSpeedMPH,WindSpeedGustMPH,Humidity,HourlyPrecipIn,Conditions,Clouds,dailyrainin,SolarRadiationWatts/m^2,SoftwareType,DateUTC
2013-09-01 00:02:00,66.0,50.0,-100.00,SW,230,4.0,5.0,57,0.00,,,0.00,0.000000,,2013-09-01 07:02:00,
2013-09-01 00:12:00,66.0,50.0,-100.00,SW,230,4.0,5.0,57,0.00,,,0.00,0.000000,,2013-09-01 07:12:00,
2013-09-01 00:22:00,66.0,50.0,-100.00,SW,230,4.0,5.0,57,0.00,,,0.00,0.000000,,2013-09-01 07:22:00,
2013-09-01 00:52:00,66.0,50.0,-100.00,ENE,67,3.0,5.0,56,0.00,,,0.00,0.000000,,2013-09-01 07:52:00,
2013-09-01 01:02:00,66.0,50.0,-100.00,ENE,67,3.0,5.0,56,0.00,,,0.00,0.000000,,2013-09-01 08:02:00,
2013-09-01 01:11:00,66.0,50.0,-100.00,ENE,67,3.0,5.0,56,0.00,,,0.00,0.000000,,2013-09-01 08:11:00,
2013-09-01 01:22:00,66.0,50.0,-100.00,ENE,67,3.0,5.0,56,0.00,,,0.00,0.000000,,2013-09-01 08:22:00,
2013-09-01 01:52:00,62.0,51.0,-100.00,NNW,342,0.0,5.0,68,0.00,,,0.00,0.000000,,2013-09-01 08:52:00,
2013-09-01 02:02:00,62.0,51.0,-100.00,NNW,342,0.0,5.0,68,0.00,,,0.00,0.000000,,2013-09-01 09:02:00,
2013-09-01 02:11:00,62.0,51.0,-100.00,NNW,342,0.0,5.0,68,0.00,,,0.00,0.000000,,2013-09-01 09:11:00,
2013-09-01 02:21:00,62.0,51.0,-100.00,NNW,342,0.0,5.0,68,0.00,,,0.00,0.000000,,2013-09-01 09:21:00,
2013-09-01 02:53:00,59.0,52.0,-100.00,ESE,108,1.0,4.0,77,0.00,,,-99.99,0.000000,,2013-09-01 09:53:00,
2013-09-01 03:03:00,59.0,52.0,-100.00,ESE,108,1.0,4.0,77,0.00,,,-99.99,0.000000,,2013-09-01 10:03:00,
2013-09-01 03:12:00,59.0,52.0,-100.00,ESE,108,1.0,4.0,77,0.00,,,-99.99,0.000000,,2013-09-01 10:12:00,
2013-09-01 03:23:00,59.0,52.0,-100.00,ESE,108,1.0,4.0,77,0.00,,,-99.99,0.000000,,2013-09-01 10:23:00,
2013-09-01 03:53:00,63.0,46.0,-100.00,WNW,284,3.0,8.0,53,0.00,,,0.00,0.000000,,2013-09-01 10:53:00,
2013-09-01 04:02:00,63.0,46.0,-100.00,WNW,284,3.0,8.0,53,0.00,,,0.00,0.000000,,2013-09-01 11:02:00,
2013-09-01 04:12:00,63.0,46.0,-100.00,WNW,284,3.0,8.0,53,0.00,,,0.00,0.000000,,2013-09-01 11:12:00,
2013-09-01 04:22:00,63.0,46.0,-100.00,WNW,284,3.0,8.0,53,0.00,,,0.00,0.000000,,2013-09-01 11:22:00,
2013-09-01 04:52:00,57.0,50.0,-100.00,North,2,3.0,9.0,77,0.00,,,0.00,0.000000,,2013-09-01 11:52:00,
2013-09-01 05:01:00,57.0,50.0,-100.00,North,2,3.0,9.0,77,0.00,,,0.00,0.000000,,2013-09-01 12:01:00,
2013-09-01 05:12:00,57.0,50.0,-100.00,North,2,3.0,9.0,77,0.00,,,0.00,0.000000,,2013-09-01 12:12:00,
2013-09-01 05:22:00,57.0,50.0,-100.00,North,2,3.0,9.0,77,0.00,,,0.00,0.000000,,2013-09-01 12:22:00,
2013-09-01 05:52:00,61.0,46.0,-100.00,NW,311,5.0,7.0,58,0.00,,,0.00,0.000000,,2013-09-01 12:52:00,
2013-09-01 06:01:00,61.0,46.0,-100.00,NW,311,5.0,7.0,58,0.00,,,0.00,0.000000,,2013-09-01 13:01:00,
2013-09-01 06:11:00,61.0,46.0,-100.00,NW,311,5.0,7.0,58,0.00,,,0.00,0.000000,,2013-09-01 13:11:00,
2013-09-01 06:21:00,61.0,46.0,-100.00,NW,311,5.0,7.0,58,0.00,,,0.00,0.000000,,2013-09-01 13:21:00,
2013-09-01 06:52:00,61.0,46.0,-100.00,NNW,344,4.0,6.0,57,0.00,,,0.00,3.000000,,2013-09-01 13:52:00,
2013-09-01 07:02:00,61.0,46.0,-100.00,NNW,344,4.0,6.0,57,0.00,,,0.00,3.000000,,2013-09-01 14:02:00,
2013-09-01 07:11:00,61.0,46.0,-100.00,NNW,344,4.0,6.0,57,0.00,,,0.00,3.000000,,2013-09-01 14:11:00,
2013-09-01 07:21:00,61.0,46.0,-100.00,NNW,344,4.0,6.0,57,0.00,,,0.00,3.000000,,2013-09-01 14:21:00,
2013-09-01 08:11:00,66.0,49.0,-100.00,ENE,64,3.0,5.0,54,0.00,,,0.00,102.000000,,2013-09-01 15:11:00,
2013-09-01 08:23:00,66.0,49.0,-100.00,ENE,64,3.0,5.0,54,0.00,,,0.00,102.000000,,2013-09-01 15:23:00,
2013-09-01 08:55:00,72.0,48.0,-100.00,North,352,4.0,7.0,42,0.00,,,0.00,293.000000,,2013-09-01 15:55:00,
2013-09-01 09:05:00,72.0,48.0,-100.00,North,352,4.0,7.0,42,0.00,,,0.00,293.000000,,2013-09-01 16:05:00,
2013-09-01 09:14:00,72.0,48.0,-100.00,North,352,4.0,7.0,42,0.00,,,0.00,293.000000,,2013-09-01 16:14:00,
2013-09-01 09:24:00,72.0,48.0,-100.00,North,352,4.0,7.0,42,0.00,,,0.00,293.000000,,2013-09-01 16:24:00,
2013-09-01 09:53:00,75.0,46.0,-100.00,NNW,342,8.0,11.0,36,0.00,,,0.00,486.000000,,2013-09-01 16:53:00,
2013-09-01 10:03:00,75.0,46.0,-100.00,NNW,342,8.0,11.0,36,0.00,,,0.00,486.000000,,2013-09-01 17:03:00,
2013-09-01 10:12:00,75.0,46.0,-100.00,NNW,342,8.0,11.0,36,0.00,,,0.00,486.000000,,2013-09-01 17:12:00,
2013-09-01 10:23:00,75.0,46.0,-100.00,NNW,342,8.0,11.0,36,0.00,,,0.00,486.000000,,2013-09-01 17:23:00,
2013-09-01 10:52:00,79.0,48.0,-100.00,NNW,342,9.0,14.0,34,0.00,,,0.00,652.000000,,2013-09-01 17:52:00,
2013-09-01 11:02:00,79.0,48.0,-100.00,NNW,342,9.0,14.0,34,0.00,,,0.00,652.000000,,2013-09-01 18:02:00,
2013-09-01 11:12:00,79.0,48.0,-100.00,NNW,342,9.0,14.0,34,0.00,,,0.00,652.000000,,2013-09-01 18:12:00,
2013-09-01 11:22:00,79.0,48.0,-100.00,NNW,342,9.0,14.0,34,0.00,,,0.00,652.000000,,2013-09-01 18:22:00,
2013-09-01 11:52:00,83.0,48.0,-100.00,NNW,331,8.0,13.0,30,0.00,,,0.00,777.000000,,2013-09-01 18:52:00,
2013-09-01 12:02:00,83.0,48.0,-100.00,NNW,331,8.0,13.0,30,0.00,,,0.00,777.000000,,2013-09-01 19:02:00,
2013-09-01 12:12:00,83.0,48.0,-100.00,NNW,331,8.0,13.0,30,0.00,,,0.00,777.000000,,2013-09-01 19:12:00,
2013-09-01 12:22:00,83.0,48.0,-100.00,NNW,331,8.0,13.0,30,0.00,,,0.00,777.000000,,2013-09-01 19:22:00,
2013-09-01 12:52:00,87.0,47.0,-100.00,NW,315,7.0,13.0,25,0.00,,,0.00,856.000000,,2013-09-01 19:52:00,
2013-09-01 13:02:00,87.0,47.0,-100.00,NW,315,7.0,13.0,25,0.00,,,0.00,856.000000,,2013-09-01 20:02:00,
2013-09-01 13:12:00,87.0,47.0,-100.00,NW,315,7.0,13.0,25,0.00,,,0.00,856.000000,,2013-09-01 20:12:00,
2013-09-01 13:21:00,87.0,47.0,-100.00,NW,315,7.0,13.0,25,0.00,,,0.00,856.000000,,2013-09-01 20:21:00,
2013-09-01 13:52:00,88.0,50.0,-100.00,West,266,11.0,15.0,27,0.00,,,0.00,877.000000,,2013-09-01 20:52:00,
2013-09-01 14:02:00,88.0,50.0,-100.00,West,266,11.0,15.0,27,0.00,,,0.00,877.000000,,2013-09-01 21:02:00,
2013-09-01 14:11:00,88.0,50.0,-100.00,West,266,11.0,15.0,27,0.00,,,0.00,877.000000,,2013-09-01 21:11:00,
2013-09-01 14:21:00,88.0,50.0,-100.00,West,266,11.0,15.0,27,0.00,,,0.00,877.000000,,2013-09-01 21:21:00,
2013-09-01 14:55:00,90.0,50.0,-100.00,West,262,9.0,13.0,26,0.00,,,0.00,837.000000,,2013-09-01 21:55:00,
2013-09-01 15:04:00,90.0,50.0,-100.00,West,262,9.0,13.0,26,0.00,,,0.00,837.000000,,2013-09-01 22:04:00,
2013-09-01 15:14:00,90.0,50.0,-100.00,West,262,9.0,13.0,26,0.00,,,0.00,837.000000,,2013-09-01 22:14:00,
2013-09-01 15:24:00,90.0,50.0,-100.00,West,262,9.0,13.0,26,0.00,,,0.00,837.000000,,2013-09-01 22:24:00,
2013-09-01 15:53:00,92.0,48.0,-100.00,West,278,6.0,13.0,22,0.00,,,0.00,742.000000,,2013-09-01 22:53:00,
2013-09-01 16:03:00,92.0,48.0,-100.00,West,278,6.0,13.0,22,0.00,,,0.00,742.000000,,2013-09-01 23:03:00,
2013-09-01 16:12:00,92.0,48.0,-100.00,West,278,6.0,13.0,22,0.00,,,0.00,742.000000,,2013-09-01 23:12:00,
2013-09-01 16:23:00,92.0,48.0,-100.00,West,278,6.0,13.0,22,0.00,,,0.00,742.000000,,2013-09-01 23:23:00,
2013-09-01 16:53:00,94.0,45.0,-100.00,West,266,5.0,10.0,19,0.00,,,0.00,604.000000,,2013-09-01 23:53:00,
2013-09-01 17:02:00,94.0,45.0,-100.00,West,266,5.0,10.0,19,0.00,,,0.00,604.000000,,2013-09-02 00:02:00,
2013-09-01 17:11:00,94.0,45.0,-100.00,West,266,5.0,10.0,19,0.00,,,0.00,604.000000,,2013-09-02 00:11:00,
2013-09-01 17:22:00,94.0,45.0,-100.00,West,266,5.0,10.0,19,0.00,,,0.00,604.000000,,2013-09-02 00:22:00,
2013-09-01 17:52:00,92.0,48.0,-100.00,NW,312,6.0,9.0,22,0.00,,,0.00,427.000000,,2013-09-02 00:52:00,
2013-09-01 18:02:00,92.0,48.0,-100.00,NW,312,6.0,9.0,22,0.00,,,0.00,427.000000,,2013-09-02 01:02:00,
2013-09-01 18:12:00,92.0,48.0,-100.00,NW,312,6.0,9.0,22,0.00,,,0.00,427.000000,,2013-09-02 01:12:00,
2013-09-01 18:21:00,92.0,48.0,-100.00,NW,312,6.0,9.0,22,0.00,,,0.00,427.000000,,2013-09-02 01:21:00,
2013-09-01 18:52:00,92.0,46.0,-100.00,NNW,330,2.0,6.0,21,0.00,,,0.00,241.000000,,2013-09-02 01:52:00,
2013-09-01 19:02:00,92.0,46.0,-100.00,NNW,330,2.0,6.0,21,0.00,,,0.00,241.000000,,2013-09-02 02:02:00,
2013-09-01 19:12:00,92.0,46.0,-100.00,NNW,330,2.0,6.0,21,0.00,,,0.00,241.000000,,2013-09-02 02:12:00,
2013-09-01 19:22:00,92.0,46.0,-100.00,NNW,330,2.0,6.0,21,0.00,,,0.00,241.000000,,2013-09-02 02:22:00,
2013-09-01 19:52:00,81.0,50.0,-100.00,NW,321,4.0,5.0,34,0.00,,,0.00,67.000000,,2013-09-02 02:52:00,
2013-09-01 20:02:00,81.0,50.0,-100.00,NW,321,4.0,5.0,34,0.00,,,0.00,67.000000,,2013-09-02 03:02:00,
2013-09-01 20:11:00,81.0,50.0,-100.00,NW,321,4.0,5.0,34,0.00,,,0.00,67.000000,,2013-09-02 03:11:00,
2013-09-01 20:22:00,81.0,50.0,-100.00,NW,321,4.0,5.0,34,0.00,,,0.00,67.000000,,2013-09-02 03:22:00,
2013-09-01 21:14:00,75.0,50.0,-100.00,NNE,30,5.0,8.0,42,0.00,,,0.00,2.000000,,2013-09-02 04:14:00,
2013-09-01 21:24:00,75.0,50.0,-100.00,NNE,30,5.0,8.0,42,0.00,,,0.00,2.000000,,2013-09-02 04:24:00,
2013-09-01 21:54:00,71.0,50.0,-100.00,NE,38,3.0,7.0,47,0.00,,,-99.99,0.000000,,2013-09-02 04:54:00,
2013-09-01 22:03:00,71.0,50.0,-100.00,NE,38,3.0,7.0,47,0.00,,,-99.99,0.000000,,2013-09-02 05:03:00,
2013-09-01 22:12:00,71.0,50.0,-100.00,NE,38,3.0,7.0,47,0.00,,,-99.99,0.000000,,2013-09-02 05:12:00,
2013-09-01 22:23:00,71.0,50.0,-100.00,NE,38,3.0,7.0,47,0.00,,,-99.99,0.000000,,2013-09-02 05:23:00,
2013-09-01 22:52:00,70.0,51.0,-100.00,NNE,18,5.0,7.0,51,0.00,,,0.00,0.000000,,2013-09-02 05:52:00,
2013-09-01 23:03:00,70.0,51.0,-100.00,NNE,18,5.0,7.0,51,0.00,,,0.00,0.000000,,2013-09-02 06:03:00,
2013-09-01 23:12:00,70.0,51.0,-100.00,NNE,18,5.0,7.0,51,0.00,,,0.00,0.000000,,2013-09-02 06:12:00,
2013-09-01 23:22:00,70.0,51.0,-100.00,NNE,18,5.0,7.0,51,0.00,,,0.00,0.000000,,2013-09-02 06:22:00,
2013-09-01 23:52:00,69.0,50.0,-100.00,NNE,22,4.0,6.0,50,0.00,,,0.00,0.000000,,2013-09-02 06:52:00,